Location: Newark
(43.0000°N, 1.6781°W)
Time: 20:07:44
(UTC+00:00)

Courier 1B Rocket - Pass Details

Date: 28 April 2021
Orbit: 920 x 1202 km, 28.3° (Epoch: 13 May)

Event Time Altitude Azimuth Distance (km) Brightness Sun altitude
Rises 20:08:30 0° 251° (WSW) 3,596 8.6 -11.3°
Reaches altitude 10° 20:12:09 10° 230° (SW) 2,688 7.5 -11.9°
Maximum altitude 20:15:55 16° 194° (SSW) 2,316 6.8 -12.4°
Enters shadow 20:19:43 10° 159° (SSE) 2,770 6.9 -13.0°
